Temp
46 47 46 46 44 43 44 48 47 47 48 49 48 48 49 49 48 47 42 48 42 37 40 46 47 43 43 44 39 41 40 40 40 35 37 37 35 40 38 42 40 38 35 33 35 30 27 50 46 39 45 47 47 47
46 46 46 46 43 41 43 46 47 47 47 47 47 48 48 48 49 48 40 50 50 41 37 46 48 49 50 52 48 45 43 44 45 41 43 44 37 40 39 32 47 35 43 40 41 41 50 51 50 53 51 49 49 45
45 46 46 46 44 43 44 46 47 47 47 48 48 48 48 49 49 49 43 44 45 40 40 42 42 50 53 54 54 44 46 47 46 48 40 36 33 43 35 37 41 46 51 40 41 45 49 52 54 51 50 46 48 48
45 45 46 46 45 43 43 45 46 47 48 48 48 49 49 48 49 49 46 45 43 43 36 40 52 48 55 54 53 52 49 50 49 48 42 39 35 44 39 43 42 47 47 42 41 46 49 51 52 51 49 45 44 45
45 45 45 46 45 45 44 45 46 47 47 48 48 48 49 49 49 49 48 47 48 44 35 39 45 50 53 53 51 49 49 47 44 41 38 36 42 42 44 44 40 49 44 39 38 49 48 48 50 47 44 43 44 42
46 46 45 45 46 46 45 45 47 47 47 47 48 48 48 48 48 47 35 46 49 44 36 33 46 45 49 50 49 49 49 47 44 42 40 44 48 42 36 36 47 51 53 52 47 53 47 41 45 45 43 43 44 43
45 45 45 45 45 46 46 45 46 46 47 47 47 48 48 48 49 42 40 44 48 45 35 33 37 45 49 47 46 46 47 44 44 39 36 42 42 42 36 34 45 51 53 53 55 52 44 45 44 44 44 44 42 43
45 45 45 45 45 45 45 45 46 46 46 47 47 47 47 47 46 43 47 46 46 38 37 31 34 38 47 41 39 46 42 42 41 40 43 39 42 40 32 43 48 51 53 53 53 51 50 48 46 44 44 42 39 38
44 45 45 45 45 45 45 45 46 46 46 47 47 46 46 41 37 43 45 46 45 42 33 34 33 31 45 41 42 38 40 33 44 35 38 40 37 32 39 44 48 51 50 51 51 47 45 44 44 42 41 40 39 38
45 45 44 44 45 45 45 45 45 46 46 46 44 36 32 36 45 45 36 33 33 37 41 36 43 34 42 40 38 36 35 35 32 38 45 34 36 45 49 51 52 52 54 52 42 39 41 41 41 39 39 41 40 37
45 45 45 45 45 45 45 45 46 46 45 38 33 34 39 45 40 36 30 30 31 29 36 41 43 37 45 36 36 39 34 35 29 38 35 35 36 43 50 51 54 54 54 50 50 49 46 45 42 39 39 39 38 36
45 45 45 45 45 45 45 45 45 44 38 38 41 41 40 37 32 28 28 30 31 33 38 38 40 45 42 45 40 35 32 35 29 38 32 32 42 50 51 51 53 53 53 48 47 45 45 43 43 41 38 37 36 35
45 45 45 45 45 45 45 45 45 44 44 42 42 34 35 33 25 23 21 27 29 36 37 38 35 42 40 39 36 35 29 30 40 31 32 38 46 45 44 44 43 45 45 44 44 44 43 42 41 38 34 33 31 28
45 45 45 45 45 45 45 45 45 46 45 38 33 25 28 25 28 30 33 35 40 40 38 40 38 38 40 33 34 29 35 34 28 26 32 42 40 38 40 40 40 35 34 35 35 35 34 33 32 32 31 30 28 26
45 45 45 45 45 45 45 45 45 49 42 37 36 28 29 36 37 38 41 40 41 42 40 37 37 39 36 32 34 35 28 26 30 32 39 39 35 36 35 38 35 33 32 32 32 32 31 30 30 28 28 30 29 25
46 45 44 45 45 46 45 46 47 47 43 38 35 30 35 34 32 31 33 35 41 41 42 41 33 31 32 35 29 28 30 29 35 39 37 37 33 33 34 33 33 33 33 32 32 31 30 29 29 28 27 27 25 25
45 41 45 45 45 45 46 45 43 39 37 36 32 35 35 35 36 34 35 37 44 41 34 37 29 30 38 31 29 36 31 36 36 37 37 34 33 33 32 32 31 31 32 31 30 31 29 28 27 27 26 25 27 26
42 45 45 46 45 44 45 45 40 35 31 33 31 32 34 35 34 32 35 41 41 41 41 37 41 32 30 28 32 35 35 33 33 33 33 33 32 32 33 32 31 32 31 30 30 28 28 28 30 31 29 29 29 28
44 45 45 46 46 44 38 39 38 32 33 34 33 34 35 35 37 40 40 43 45 47 41 37 32 33 34 35 34 34 33 33 32 31 32 32 33 32 32 32 31 31 30 30 31 33 33 33 35 33 32 31 31 30
46 46 46 46 47 42 35 35 37 34 33 33 35 34 35 35 34 35 36 36 36 35 33 31 34 33 33 34 36 36 37 36 34 30 31 31 33 32 32 33 34 32 32 31 32 31 32 32 33 33 32 32 30 29
45 45 45 48 43 40 35 34 33 36 34 33 35 35 33 35 33 33 32 35 33 33 32 35 34 34 35 35 35 36 35 35 34 35 33 30 33 35 33 33 33 33 32 31 30 30 30 31 31 31 29 29 29 29
44 44 43 42 35 35 35 35 33 35 34 33 33 35 33 31 31 32 34 32 31 32 35 35 35 35 34 33 34 34 33 34 34 33 32 33 32 33 33 33 33 32 32 32 32 29 30 30 30 29 28 27 29 28
43 42 40 37 31 31 30 34 30 33 29 30 33 31 30 31 33 37 30 32 32 34 37 37 36 37 35 35 34 34 35 34 33 34 33 34 34 33 33 33 33 31 29 29 30 30 29 27 27 27 26 27 26 24
40 33 31 30 31 28 31 29 35 31 31 30 29 27 29 31 35 32 28 31 32 35 36 35 36 34 34 34 33 33 34 35 33 32 32 32 31 31 32 31 31 31 31 29 30 28 27 26 24 25 25 25 24 23
31 25 28 25 29 28 27 27 27 29 25 25 26 27 28 31 28 27 28 29 31 32 33 35 36 36 35 34 33 33 35 36 33 31 32 33 31 30 30 30 30 31 31 29 27 26 25 24 25 24 24 24 22 22
22 24 25 25 26 26 26 24 24 24 25 25 26 28 30 29 25 25 29 30 31 32 31 32 33 33 33 35 34 33 34 37 36 33 31 33 33 32 30 28 27 27 31 31 28 26 24 24 23 22 22 22 21 21
20 22 27 31 28 29 27 28 29 27 24 23 26 26 27 25 24 26 29 31 31 32 33 34 35 36 35 33 31 30 31 33 32 32 30 30 30 32 33 30 29 31 31 29 28 27 25 24 23 23 22 21 20 20
25 24 20 22 25 27 22 23 23 23 25 28 26 22 23 24 24 28 29 30 31 31 31 31 31 34 33 31 30 28 27 26 26 27 27 27 26 27 27 27 28 28 30 29 28 28 27 26 24 23 21 19 18 18
24 25 24 17 21 24 24 24 24 27 28 28 25 24 25 27 27 28 29 30 31 31 30 29 27 28 27 27 27 28 28 28 27 25 26 26 25 25 26 25 26 27 27 26 25 27 26 24 23 22 20 18 17 16
23 25 22 18 20 20 24 27 27 29 30 30 30 28 27 26 27 27 28 29 29 29 29 29 28 29 28 28 26 25 27 29 28 29 28 27 28 27 25 24 24 24 25 24 21 18 17 15 14 13 13 13 13 12
24 25 23 24 23 26 27 28 29 29 27 28 28 27 26 26 26 25 26 25 26 27 28 27 27 27 27 26 27 26 25 27 24 24 26 28 27 26 25 23 22 22 21 20 19 19 17 17 16 14 13 12 10 10
24 20 21 18 22 27 28 26 26 26 25 25 25 25 24 23 22 25 22 21 24 26 27 29 28 28 28 28 28 28 21 29 25 23 22 25 25 24 22 20 20 20 20 19 18 17 16 15 14 13 10 8 8 6
24 22 22 22 22 22 23 22 22 21 22 23 23 21 23 23 22 24 18 18 22 25 26 25 24 24 24 25 26 25 24 24 20 20 20 21 20 20 20 19 19 18 17 17 16 15 14 13 11 10 8 6 4 3
MSLP
1003.75 1003.89 1003.93 1003.85 1004.03 1003.44 1002.52 1002.05 1003.77 1005.01 1006.47 1007.58 1008.74 1009.85 1010.83 1011.91 1012.96 1013.97 1015.35 1015.85 1016.38 1016.86 1016.81 1016.54 1016.57 1016.57 1016.71 1016.62 1016.68 1017.83 1018.36 1018.64 1018.61 1018.06 1017.31 1016.83 1016.52 1016.08 1015.70 1015.20 1015.04 1015.25 1015.33 1015.50 1015.23 1014.70 1013.84 1013.59 1014.34 1014.25 1014.21 1014.60 1014.97 1015.35
1003.28 1003.46 1003.65 1003.70 1004.05 1003.86 1003.37 1002.77 1003.55 1004.87 1006.66 1007.17 1008.74 1009.86 1010.82 1011.81 1012.86 1013.60 1015.13 1015.74 1015.88 1016.92 1017.82 1017.67 1017.35 1017.26 1016.96 1016.55 1016.70 1017.30 1017.13 1017.01 1017.25 1017.13 1016.80 1016.46 1016.37 1016.09 1015.48 1014.84 1014.91 1014.87 1014.27 1013.89 1013.99 1013.18 1013.29 1013.84 1013.58 1013.72 1014.10 1014.45 1014.69 1015.63
1002.94 1003.12 1003.44 1003.76 1004.02 1003.94 1003.08 1003.50 1004.22 1005.54 1006.64 1007.84 1008.84 1009.75 1010.81 1011.87 1012.70 1013.61 1014.98 1015.70 1016.12 1016.93 1017.75 1017.72 1017.17 1017.22 1017.49 1017.24 1017.21 1017.04 1017.31 1017.24 1017.28 1017.49 1017.77 1017.82 1017.10 1016.28 1015.19 1014.73 1014.34 1014.17 1014.17 1014.23 1014.16 1013.52 1013.12 1013.02 1013.24 1014.07 1014.42 1014.89 1015.13 1015.58
1002.69 1002.99 1003.33 1003.50 1003.88 1004.29 1004.27 1004.58 1005.30 1006.17 1007.10 1008.10 1008.98 1010.19 1011.10 1012.06 1013.12 1013.71 1014.65 1015.49 1015.98 1016.58 1016.85 1016.84 1016.83 1016.91 1017.03 1017.28 1017.29 1017.49 1017.42 1017.62 1017.55 1017.77 1017.69 1017.48 1017.05 1016.53 1015.34 1014.63 1014.16 1013.78 1014.01 1013.81 1013.44 1013.28 1013.14 1013.14 1013.31 1013.80 1014.43 1015.17 1015.60 1016.04
1002.50 1002.91 1003.47 1003.77 1004.23 1004.79 1005.29 1005.93 1006.56 1007.04 1007.75 1008.51 1009.52 1010.64 1011.59 1012.63 1013.56 1014.34 1015.10 1015.54 1015.54 1016.02 1016.64 1016.58 1016.77 1016.44 1016.44 1016.65 1016.92 1017.81 1017.67 1017.69 1017.70 1017.76 1017.77 1017.39 1017.02 1016.59 1015.45 1014.77 1013.54 1013.57 1013.15 1013.21 1012.46 1012.66 1012.86 1013.13 1013.52 1014.17 1014.63 1015.24 1015.71 1016.33
1002.10 1002.71 1003.41 1004.04 1004.57 1005.04 1005.71 1006.31 1007.06 1007.75 1008.51 1009.20 1010.24 1011.43 1012.25 1012.94 1013.93 1014.28 1015.86 1015.91 1016.00 1016.59 1016.86 1016.92 1016.28 1015.94 1016.12 1016.44 1016.70 1017.06 1017.26 1017.57 1017.87 1017.61 1017.33 1016.79 1016.55 1016.62 1014.80 1012.84 1012.83 1012.57 1012.39 1012.40 1012.15 1012.48 1012.89 1013.80 1014.17 1014.59 1014.92 1015.56 1016.19 1016.65
1001.88 1002.64 1003.29 1003.99 1004.65 1005.23 1006.01 1006.80 1007.47 1008.17 1009.08 1009.93 1010.83 1011.78 1012.44 1013.31 1013.82 1014.46 1014.48 1014.75 1015.63 1016.84 1016.99 1016.87 1015.89 1015.89 1015.94 1016.50 1016.90 1017.15 1017.45 1017.43 1017.65 1017.62 1017.11 1016.41 1016.32 1016.19 1014.23 1011.79 1012.56 1011.89 1011.72 1011.63 1011.90 1012.24 1013.04 1013.56 1013.70 1014.60 1015.17 1015.84 1016.67 1017.08
1001.70 1002.40 1003.17 1003.94 1004.78 1005.55 1006.28 1007.08 1007.82 1008.63 1009.54 1010.52 1011.22 1012.12 1012.93 1013.75 1014.36 1014.37 1014.64 1015.08 1016.04 1017.19 1017.10 1016.50 1015.59 1015.96 1016.03 1015.88 1016.30 1016.60 1016.75 1017.11 1016.88 1016.40 1015.76 1015.59 1015.48 1015.02 1012.71 1011.33 1011.22 1010.88 1010.62 1010.52 1010.71 1011.78 1012.33 1013.11 1013.91 1014.62 1015.39 1016.16 1016.72 1017.31
1001.50 1002.31 1003.12 1003.91 1004.72 1005.48 1006.44 1007.35 1008.14 1008.95 1009.81 1010.64 1011.53 1012.44 1013.43 1014.20 1014.32 1014.34 1015.35 1015.83 1016.46 1016.50 1015.85 1015.60 1014.61 1014.72 1015.51 1015.50 1015.99 1016.62 1016.60 1016.27 1015.61 1015.08 1014.71 1014.84 1013.71 1012.30 1010.49 1010.29 1009.84 1009.68 1009.57 1009.72 1010.51 1011.76 1012.64 1013.10 1013.70 1014.58 1015.45 1016.10 1016.60 1017.41
1001.30 1002.15 1002.96 1003.84 1004.69 1005.57 1006.44 1007.37 1008.16 1008.89 1009.86 1010.94 1012.06 1012.81 1013.51 1014.20 1014.38 1015.08 1016.16 1016.59 1016.51 1015.86 1015.04 1014.28 1013.80 1014.16 1014.70 1014.80 1015.28 1016.04 1016.12 1015.51 1014.36 1013.53 1013.21 1012.88 1011.02 1010.25 1009.85 1009.22 1008.84 1008.83 1009.00 1009.67 1010.83 1011.59 1012.25 1012.85 1013.63 1014.51 1015.24 1015.93 1016.62 1017.69
1000.82 1001.88 1002.93 1003.87 1004.76 1005.69 1006.66 1007.53 1008.41 1009.43 1010.58 1011.80 1012.34 1012.57 1013.10 1013.90 1014.48 1014.79 1014.77 1014.81 1014.72 1014.40 1014.11 1013.19 1012.98 1013.34 1014.01 1013.84 1014.33 1015.20 1014.87 1014.52 1013.32 1011.79 1012.08 1010.37 1008.84 1008.27 1008.19 1007.78 1007.72 1008.08 1008.70 1009.55 1010.13 1010.72 1011.45 1012.25 1013.30 1014.36 1015.31 1016.14 1017.06 1018.20
1000.11 1001.44 1002.64 1003.73 1004.80 1005.80 1006.81 1007.75 1008.70 1009.58 1010.66 1011.23 1011.35 1012.10 1013.19 1013.30 1013.62 1013.59 1013.19 1013.55 1012.89 1011.85 1012.50 1012.30 1012.52 1012.56 1013.46 1013.75 1013.54 1014.71 1014.42 1013.65 1012.23 1012.13 1011.51 1009.10 1007.62 1007.20 1007.33 1007.20 1007.20 1007.69 1008.30 1009.69 1010.49 1011.04 1011.71 1012.63 1013.52 1014.56 1015.59 1016.56 1017.57 1018.67
999.08 1000.71 1002.17 1003.58 1004.80 1005.97 1007.01 1007.88 1008.97 1009.98 1010.21 1011.04 1010.65 1011.78 1011.79 1012.35 1011.99 1011.83 1011.35 1011.56 1011.39 1011.36 1011.96 1011.99 1012.31 1012.42 1013.61 1013.74 1013.71 1013.79 1013.51 1012.54 1012.20 1011.46 1009.73 1008.20 1007.75 1008.16 1008.41 1008.56 1008.68 1008.86 1009.45 1010.39 1011.09 1011.72 1012.42 1013.36 1014.29 1015.19 1016.25 1017.33 1018.28 1019.26
998.05 1000.03 1002.03 1003.67 1005.11 1006.28 1007.30 1008.43 1009.23 1009.47 1009.87 1009.42 1010.11 1010.95 1010.79 1010.88 1010.71 1010.52 1010.18 1010.10 1010.28 1010.61 1011.21 1011.46 1011.87 1011.92 1012.33 1013.08 1013.16 1012.98 1012.40 1012.41 1011.29 1010.21 1008.75 1008.20 1008.93 1009.31 1009.40 1009.59 1009.87 1010.36 1010.86 1011.41 1011.98 1012.69 1013.56 1014.47 1015.34 1016.23 1017.10 1017.98 1018.71 1019.67
998.41 1000.63 1002.42 1004.24 1005.62 1006.89 1007.96 1008.73 1009.23 1009.47 1008.98 1009.04 1009.52 1009.52 1009.66 1009.52 1009.82 1009.74 1009.68 1009.84 1010.15 1010.48 1010.91 1011.23 1011.77 1011.83 1011.86 1012.34 1012.39 1011.83 1011.95 1011.09 1010.17 1009.11 1008.78 1009.41 1009.90 1010.11 1010.44 1010.64 1011.12 1011.59 1012.02 1012.55 1013.22 1013.90 1014.69 1015.46 1016.26 1017.20 1017.98 1018.45 1019.12 1020.21
999.88 1001.89 1003.29 1004.63 1005.98 1007.07 1007.90 1008.96 1009.56 1009.37 1009.02 1008.90 1009.03 1008.88 1008.56 1008.73 1009.38 1009.98 1009.98 1009.64 1009.87 1010.25 1010.40 1010.62 1011.21 1011.10 1010.77 1010.74 1011.08 1010.69 1010.23 1009.52 1009.15 1009.30 1009.83 1010.22 1010.60 1011.01 1011.30 1011.67 1012.10 1012.51 1012.89 1013.48 1014.13 1014.81 1015.56 1016.31 1016.95 1017.70 1018.51 1019.12 1019.86 1020.52
1001.59 1002.24 1003.72 1005.32 1006.65 1008.09 1009.27 1009.91 1010.17 1009.76 1009.30 1008.73 1008.38 1008.34 1008.20 1008.18 1008.01 1008.93 1009.30 1009.24 1009.38 1009.55 1009.28 1010.32 1010.31 1010.09 1010.14 1010.11 1010.03 1009.50 1009.30 1009.46 1009.88 1010.26 1010.72 1011.11 1011.36 1011.72 1012.03 1012.43 1012.90 1013.26 1013.73 1014.34 1014.95 1015.59 1016.32 1017.06 1017.63 1018.13 1018.77 1019.67 1020.17 1020.88
1002.69 1003.89 1005.10 1006.40 1007.72 1009.21 1009.91 1009.78 1009.95 1010.02 1009.26 1008.53 1008.70 1008.25 1008.25 1008.34 1008.64 1008.98 1008.98 1008.78 1009.00 1008.93 1009.00 1009.09 1009.56 1009.82 1009.60 1009.27 1009.13 1009.32 1009.76 1010.36 1010.86 1011.18 1011.45 1011.73 1011.96 1012.34 1012.58 1012.91 1013.44 1013.85 1014.39 1014.98 1015.48 1016.10 1016.65 1017.17 1017.64 1018.14 1018.84 1019.53 1020.14 1020.88
1004.07 1005.17 1006.38 1007.25 1008.05 1008.65 1009.35 1009.83 1010.11 1009.15 1008.47 1008.46 1008.39 1008.32 1008.23 1008.23 1008.29 1008.23 1008.20 1008.45 1008.43 1008.57 1009.17 1009.49 1009.82 1009.25 1009.30 1009.58 1009.77 1009.98 1010.33 1010.70 1011.10 1011.65 1011.99 1012.35 1012.49 1012.76 1013.10 1013.55 1014.03 1014.48 1014.96 1015.46 1015.87 1016.20 1016.71 1017.10 1017.33 1018.04 1018.70 1019.39 1019.79 1020.57
1006.27 1006.82 1007.53 1008.24 1008.22 1008.27 1009.01 1009.46 1009.83 1009.29 1008.16 1008.24 1008.21 1008.19 1008.20 1008.24 1008.45 1008.35 1008.51 1008.72 1008.90 1009.19 1009.53 1009.41 1009.35 1009.75 1010.22 1010.43 1010.58 1010.58 1010.59 1010.96 1011.40 1011.88 1012.25 1012.68 1012.99 1013.33 1013.56 1013.79 1014.20 1014.83 1015.32 1015.89 1016.32 1016.64 1016.96 1017.40 1017.85 1018.34 1018.85 1019.24 1019.77 1020.42
1007.76 1007.99 1007.96 1008.04 1008.51 1008.91 1009.29 1009.16 1009.03 1008.68 1008.24 1008.02 1008.09 1008.02 1008.21 1008.42 1008.54 1008.64 1008.93 1009.17 1009.23 1009.25 1009.33 1009.52 1009.94 1010.46 1010.92 1011.06 1011.11 1011.09 1011.21 1011.33 1011.50 1011.72 1011.96 1012.63 1013.10 1013.35 1013.81 1014.23 1014.64 1014.96 1015.31 1015.79 1016.17 1016.69 1017.05 1017.34 1018.01 1018.61 1019.20 1019.61 1020.06 1020.70
1007.88 1008.36 1008.85 1009.30 1009.55 1009.58 1009.36 1009.23 1008.86 1008.38 1008.25 1008.06 1008.16 1008.12 1008.13 1008.36 1008.66 1009.01 1009.28 1009.26 1009.52 1009.73 1009.76 1009.89 1010.34 1010.68 1011.01 1011.35 1011.54 1011.63 1011.76 1011.86 1012.05 1012.30 1012.59 1012.90 1013.10 1013.41 1013.82 1014.27 1014.70 1015.02 1015.39 1015.78 1016.19 1016.70 1017.19 1017.80 1018.38 1018.91 1019.38 1020.01 1020.49 1021.09
1008.21 1008.90 1009.46 1009.86 1010.20 1010.03 1009.51 1009.38 1008.86 1008.33 1007.98 1008.11 1008.15 1008.13 1008.49 1008.64 1009.06 1009.36 1009.41 1009.73 1009.99 1010.28 1010.26 1010.48 1010.88 1011.04 1011.32 1011.75 1011.99 1012.14 1012.24 1012.30 1012.39 1012.58 1012.87 1013.07 1013.40 1013.72 1014.09 1014.48 1014.78 1015.14 1015.61 1016.18 1016.56 1016.93 1017.50 1018.26 1018.82 1019.24 1019.86 1020.34 1020.85 1021.65
1008.59 1009.49 1009.99 1010.04 1010.02 1009.58 1009.55 1009.09 1008.63 1008.45 1008.47 1008.42 1008.46 1008.62 1008.77 1008.89 1009.18 1009.21 1009.49 1009.90 1010.31 1010.61 1010.68 1010.89 1011.04 1011.36 1011.78 1012.00 1012.16 1012.35 1012.56 1012.63 1012.86 1013.15 1013.34 1013.51 1013.71 1014.13 1014.45 1014.85 1015.26 1015.59 1015.82 1016.39 1016.78 1017.32 1018.03 1018.57 1019.23 1019.67 1020.13 1020.57 1021.16 1021.74
1008.51 1010.35 1010.05 1009.76 1009.61 1009.26 1008.97 1008.80 1008.65 1008.52 1008.68 1008.85 1008.84 1008.91 1009.11 1009.27 1009.15 1009.39 1009.55 1010.06 1010.43 1010.64 1010.86 1010.99 1011.06 1011.27 1011.45 1011.88 1012.33 1012.68 1012.90 1012.92 1013.04 1013.33 1013.77 1013.89 1014.17 1014.58 1014.98 1015.35 1015.68 1015.99 1016.28 1016.55 1017.07 1017.64 1018.30 1018.96 1019.40 1019.94 1020.40 1020.81 1021.33 1021.96
1009.19 1010.31 1010.19 1009.89 1009.57 1009.15 1009.06 1008.88 1008.84 1008.87 1008.93 1008.91 1009.13 1009.39 1009.44 1009.33 1009.53 1009.54 1009.88 1010.33 1010.67 1010.93 1011.15 1011.24 1011.30 1011.54 1011.88 1012.18 1012.51 1012.86 1013.17 1013.29 1013.41 1013.71 1014.24 1014.32 1014.41 1014.49 1014.78 1015.16 1015.60 1016.26 1016.53 1016.64 1017.17 1017.73 1018.48 1019.07 1019.58 1020.13 1020.62 1021.24 1021.79 1022.32
1010.30 1010.69 1010.67 1010.77 1010.43 1009.97 1009.73 1009.61 1009.50 1009.30 1009.21 1009.32 1009.50 1009.65 1009.63 1009.62 1009.64 1010.33 1010.98 1011.36 1011.37 1011.68 1011.84 1011.92 1011.85 1011.77 1012.01 1012.66 1013.30 1013.70 1013.89 1013.98 1014.06 1014.39 1014.83 1015.08 1015.25 1015.27 1015.17 1015.24 1015.40 1015.74 1016.55 1016.97 1017.35 1017.76 1018.27 1018.95 1019.63 1020.20 1020.82 1021.61 1022.25 1022.76
1011.17 1011.41 1011.33 1011.41 1010.94 1010.80 1010.46 1010.25 1010.04 1009.90 1009.90 1010.05 1010.12 1010.02 1010.08 1010.32 1010.66 1011.33 1011.66 1012.10 1012.21 1012.36 1012.46 1012.60 1012.62 1012.47 1012.67 1013.16 1013.66 1014.12 1014.53 1014.88 1015.18 1015.27 1015.48 1015.75 1016.00 1016.09 1016.21 1016.28 1016.38 1016.53 1016.83 1017.30 1017.66 1018.08 1018.46 1018.96 1019.62 1020.34 1021.09 1021.82 1022.61 1023.37
1011.80 1012.05 1012.03 1011.95 1011.48 1011.20 1011.10 1010.91 1010.78 1010.89 1011.01 1010.71 1010.67 1010.82 1011.08 1011.62 1012.11 1012.19 1012.52 1012.63 1012.69 1012.59 1012.66 1012.84 1013.20 1013.35 1013.58 1013.90 1014.21 1014.45 1014.66 1014.79 1014.79 1014.93 1015.06 1015.38 1015.89 1016.51 1016.77 1016.91 1017.08 1017.24 1017.52 1017.92 1018.32 1018.54 1018.96 1019.52 1020.11 1020.74 1021.60 1022.46 1023.27 1024.04
1012.33 1012.57 1012.22 1012.24 1011.95 1011.72 1011.79 1011.80 1011.53 1011.57 1011.52 1011.47 1011.55 1011.82 1012.08 1012.46 1012.93 1013.26 1013.11 1012.97 1012.90 1012.80 1012.82 1012.93 1013.23 1013.34 1013.60 1013.83 1014.21 1014.66 1014.88 1014.94 1015.04 1014.90 1014.89 1015.06 1015.35 1016.23 1016.83 1017.23 1017.55 1017.85 1018.12 1018.55 1019.11 1019.84 1020.42 1020.86 1021.59 1022.27 1022.85 1023.48 1024.10 1024.80
1012.69 1012.40 1012.29 1012.25 1012.11 1012.09 1012.14 1012.24 1012.15 1012.05 1012.00 1011.84 1011.97 1012.00 1012.27 1012.74 1013.15 1013.55 1013.65 1013.73 1013.60 1013.45 1013.26 1013.30 1013.52 1013.71 1013.81 1013.98 1014.07 1014.39 1014.69 1015.06 1015.35 1015.45 1015.45 1015.42 1015.82 1016.35 1016.97 1017.57 1018.07 1018.47 1018.84 1019.25 1019.64 1020.02 1020.67 1021.22 1021.90 1022.60 1023.24 1023.88 1024.69 1025.34
1012.78 1012.82 1012.61 1012.42 1012.33 1012.47 1012.55 1012.42 1012.27 1012.08 1012.22 1012.18 1012.15 1012.60 1012.98 1013.17 1013.08 1013.28 1013.96 1014.12 1013.85 1013.47 1013.29 1013.29 1013.38 1013.57 1013.93 1014.08 1014.20 1014.46 1015.03 1014.70 1015.32 1015.74 1015.98 1016.05 1016.40 1016.97 1017.58 1018.11 1018.58 1018.90 1019.28 1019.68 1020.12 1020.64 1021.20 1021.72 1022.37 1023.10 1023.92 1024.71 1025.43 1026.14
1012.93 1013.00 1012.97 1012.76 1012.58 1012.59 1012.92 1012.92 1012.54 1012.36 1012.32 1012.20 1012.37 1012.89 1012.98 1013.03 1012.86 1013.26 1014.34 1014.54 1014.19 1013.68 1013.75 1013.95 1014.14 1014.26 1014.41 1014.49 1014.56 1014.95 1015.16 1015.49 1015.87 1016.15 1016.42 1016.67 1017.07 1017.50 1018.00 1018.52 1018.97 1019.42 1019.83 1020.25 1020.77 1021.31 1021.85 1022.42 1023.11 1023.87 1024.67 1025.49 1026.24 1026.93
Wind_Speed
15 15 15 11 7 11 10 33 29 27 25 28 26 22 21 25 22 9 5 8 5 1 3 1 2 5 6 7 5 7 6 3 7 8 6 5 6 7 6 9 11 10 7 7 9 9 11 6 6 6 5 1 4 7
15 14 11 7 9 5 8 18 27 27 23 21 20 21 21 24 19 12 5 6 6 4 3 3 2 2 3 4 5 7 3 8 6 7 6 4 5 3 8 7 12 10 10 6 6 5 4 5 11 6 6 10 12 9
13 12 9 8 8 7 8 20 24 25 25 23 22 26 28 27 22 10 6 5 3 4 3 3 5 7 4 4 3 5 2 3 5 3 2 1 7 2 7 9 10 8 8 7 9 7 15 16 13 11 8 10 8 7
14 12 10 9 9 8 13 18 19 23 24 22 21 20 20 23 20 13 7 6 5 3 4 5 6 8 10 7 4 2 3 3 5 2 4 4 4 4 6 7 9 7 4 8 13 16 17 14 15 11 7 6 5 5
16 14 12 10 10 15 14 21 21 21 22 22 21 19 17 18 19 10 7 5 5 2 2 2 3 11 12 14 12 9 7 5 4 4 4 5 3 6 9 11 12 12 15 11 11 11 13 13 7 5 6 7 7 9
17 15 14 14 14 13 17 18 20 21 20 20 21 19 18 18 19 8 3 3 7 2 4 4 1 6 11 10 15 17 10 8 6 4 5 4 6 5 9 13 14 15 13 14 15 16 8 4 3 6 8 8 9 9
17 18 17 16 15 14 15 18 20 20 20 20 20 19 18 19 9 1 3 4 14 5 3 3 4 4 9 9 6 6 8 5 6 4 5 8 7 6 8 17 14 15 15 18 18 11 9 9 5 8 8 10 10 7
18 18 20 19 19 18 18 18 19 20 20 20 20 19 18 16 7 3 4 10 12 4 2 3 4 5 10 5 5 6 6 6 6 6 6 8 5 6 10 12 15 19 20 19 19 12 12 2 7 10 11 11 11 11
20 19 20 20 21 19 20 20 20 20 21 20 20 19 11 2 3 3 10 17 1 3 6 5 7 5 7 6 4 4 3 5 5 7 9 7 10 12 13 16 19 17 17 16 8 10 9 10 11 12 13 13 12 12
22 23 21 19 20 21 21 21 20 20 20 21 11 3 4 5 20 17 5 3 3 3 3 5 7 6 8 8 7 5 3 4 5 8 5 7 15 22 23 24 21 19 15 8 10 10 11 11 13 15 15 12 11 12
25 26 26 24 23 23 23 23 22 23 23 3 3 2 4 21 4 2 5 6 5 6 5 5 10 7 6 7 5 5 3 4 5 6 7 6 8 14 22 26 23 21 17 15 13 6 12 10 13 14 13 12 11 13
29 29 28 27 27 26 26 25 27 12 6 7 5 7 4 5 4 6 5 4 5 5 7 9 8 6 4 2 3 5 4 4 6 5 5 5 6 11 8 10 13 13 13 14 11 10 11 9 11 12 12 11 11 11
33 32 31 31 28 27 26 27 22 15 16 7 5 5 5 3 6 6 7 5 4 6 7 8 9 7 5 4 3 4 6 6 1 4 5 5 2 2 4 3 2 5 11 12 11 10 11 10 10 12 10 8 11 11
33 34 33 31 30 29 27 29 21 18 10 3 4 6 5 6 5 4 5 7 3 6 10 10 7 5 4 5 3 5 3 3 5 4 6 2 3 5 1 2 6 7 7 9 9 9 10 11 9 8 8 11 11 11
30 36 34 32 31 30 31 27 23 11 3 3 3 6 7 3 5 6 6 7 5 9 9 6 2 3 6 5 5 3 5 6 6 5 1 2 6 2 3 6 8 8 7 8 9 9 10 10 10 9 7 9 9 10
31 34 18 34 34 34 33 24 11 5 2 1 3 3 4 7 6 5 5 6 7 8 6 6 3 4 6 4 6 9 5 7 3 2 1 3 2 3 4 5 6 6 7 8 8 9 9 8 9 10 9 8 8 10
16 5 34 34 33 30 26 11 5 4 3 4 4 3 4 3 2 3 6 7 9 9 5 5 6 6 2 5 6 5 4 0 1 1 2 2 4 5 5 7 7 8 9 9 10 9 10 9 10 10 10 6 8 8
16 21 35 34 27 23 8 4 4 5 7 3 4 3 3 1 3 4 5 8 9 9 9 5 3 5 5 4 3 1 1 1 1 2 1 1 4 5 6 9 8 8 10 9 9 9 9 9 9 7 9 10 9 9
21 23 34 32 17 8 6 5 3 4 5 1 1 1 2 2 2 2 7 10 6 7 5 4 5 5 3 2 2 1 2 3 2 2 2 3 5 6 8 8 8 9 9 9 9 7 6 7 6 7 7 8 7 8
29 31 27 13 8 2 4 2 2 4 3 2 2 3 2 2 2 3 6 4 3 5 4 6 3 2 2 1 2 3 2 3 5 5 4 4 4 7 7 7 7 9 8 8 6 7 7 6 5 6 6 7 7 8
17 3 7 1 3 4 0 2 4 3 2 1 1 1 2 2 2 2 3 1 2 2 3 2 3 3 2 1 0 1 3 4 4 2 4 5 5 6 6 6 7 6 7 6 7 6 6 5 6 6 7 6 6 7
3 7 3 4 3 3 3 1 3 0 1 2 1 0 3 2 2 2 1 2 2 2 2 3 4 4 4 3 2 3 3 4 4 4 5 8 6 6 6 6 7 6 5 5 5 6 5 5 6 6 7 7 8 8
9 3 2 3 1 3 2 1 3 2 1 2 0 3 2 2 2 2 2 2 2 1 3 4 5 5 6 5 5 4 3 3 3 3 5 4 4 4 5 5 4 5 5 4 4 5 6 8 8 8 8 9 9 9
5 4 5 6 5 5 2 3 2 2 2 2 2 3 2 2 2 1 3 2 3 4 5 7 6 6 5 4 3 3 3 2 4 4 3 5 5 5 4 4 3 3 3 6 6 6 7 7 9 8 8 9 9 9
5 3 1 2 1 3 3 3 1 2 3 1 2 3 2 2 2 2 3 4 5 5 5 5 4 4 3 3 3 3 2 2 3 4 3 3 5 5 5 4 4 4 5 7 7 8 7 7 7 8 9 9 10 11
6 4 3 4 3 1 1 2 2 3 3 3 2 2 1 2 3 3 3 3 4 4 4 5 5 4 4 2 4 4 3 2 4 4 3 3 3 4 5 5 5 4 4 5 8 10 10 8 9 10 9 10 11 11
4 4 2 2 3 1 1 2 2 1 3 2 2 3 3 4 4 2 2 1 1 2 1 1 2 3 3 4 3 3 2 3 3 4 4 3 3 2 1 4 6 4 7 7 7 9 11 10 10 10 9 8 9 9
3 5 3 4 3 3 2 2 3 3 2 2 1 2 2 1 1 2 2 2 2 2 2 2 2 1 3 4 4 4 4 5 7 6 6 6 5 4 4 3 4 8 7 6 7 7 8 9 9 10 10 10 9 8
3 4 1 4 2 3 4 3 2 2 3 1 1 1 1 1 1 1 2 1 1 1 3 3 3 4 5 5 4 2 5 5 7 7 7 4 3 3 3 4 4 5 6 7 7 6 9 8 9 10 11 10 9 9
4 3 1 1 2 2 2 3 1 3 2 2 1 1 1 1 1 1 2 2 3 2 2 3 4 4 4 5 4 4 3 3 2 3 4 5 4 6 5 5 6 6 6 8 10 12 15 13 14 11 11 9 9 9
2 1 2 2 2 2 2 2 2 1 3 2 1 2 0 1 2 2 1 1 1 2 4 5 4 2 4 4 5 6 5 4 2 1 1 2 7 8 7 6 6 6 7 8 9 9 10 10 9 11 11 11 11 10
2 3 1 2 2 2 2 2 1 2 1 2 2 1 2 2 4 4 2 2 4 5 5 5 6 5 4 2 3 1 3 3 4 3 5 5 7 8 8 7 7 7 8 9 8 10 11 11 10 10 11 13 12 11
1 1 1 1 2 2 1 3 1 3 3 2 2 1 2 3 4 2 3 1 2 1 2 2 2 2 1 3 3 4 4 5 6 6 7 8 10 10 8 7 7 8 10 9 9 10 11 13 12 12 12 12 12 11
Wind_Direction
247 249 258 229 250 281 298 166 150 146 153 159 160 152 145 142 137 118 121 141 128 75 105 139 118 147 152 190 172 124 143 174 184 205 215 192 236 206 240 231 201 202 210 201 236 250 266 110 142 243 13 73 335 318
240 243 245 199 248 203 258 171 148 145 154 146 158 164 161 142 128 107 105 146 122 105 88 345 360 19 357 194 230 184 357 158 167 211 207 215 213 216 231 227 222 244 231 263 235 242 35 213 268 265 224 270 297 282
227 232 226 190 216 161 138 153 143 150 149 158 163 166 161 156 143 125 119 136 111 112 118 204 202 155 175 115 66 221 195 172 172 23 60 47 252 270 224 228 243 233 257 246 279 252 266 279 271 259 272 271 292 218
211 213 212 198 164 177 142 135 149 155 147 140 132 137 143 143 138 131 144 139 87 112 185 163 191 191 182 179 104 17 75 120 115 192 239 241 242 234 256 270 266 264 269 257 269 271 281 282 263 263 245 234 214 206
197 201 190 186 168 158 169 155 154 142 131 127 127 130 135 146 143 111 117 147 147 156 101 135 178 214 204 201 192 221 226 233 219 222 216 231 239 258 249 258 255 249 246 244 256 274 294 291 309 221 202 216 196 174
197 192 178 175 168 156 155 159 151 141 136 133 135 142 145 146 142 136 110 203 172 52 109 196 47 195 193 212 212 212 208 225 246 244 241 228 243 258 261 254 245 241 237 244 265 279 290 238 229 196 181 181 175 170
191 185 183 172 167 161 156 153 148 142 140 140 141 144 148 151 157 187 119 89 162 104 112 195 176 187 193 184 202 206 222 208 220 209 228 235 216 219 250 259 265 253 251 266 272 276 247 218 229 186 174 163 157 154
186 182 178 177 172 167 161 157 151 147 146 146 142 144 145 133 106 145 69 122 121 106 177 199 153 162 181 169 184 195 200 207 219 235 230 225 245 235 256 262 258 255 257 262 255 226 261 199 177 171 169 159 159 162
183 181 175 173 172 166 160 158 157 154 151 146 143 134 123 122 134 138 123 137 40 247 168 190 173 171 171 177 180 171 204 217 223 219 225 209 220 225 243 257 257 260 258 251 239 207 209 202 186 176 176 177 171 166
184 183 180 174 169 167 164 160 156 152 146 137 118 108 155 165 116 114 59 148 191 206 216 208 206 168 191 179 182 178 193 228 233 215 194 232 245 249 249 251 260 255 261 220 183 195 200 201 191 183 188 181 173 170
187 182 179 175 169 167 166 163 158 149 139 103 141 135 97 143 112 176 171 187 158 166 184 188 194 153 204 183 174 215 191 219 237 185 212 225 247 238 241 244 245 247 247 208 212 206 190 196 188 181 182 174 165 165
182 178 173 171 170 167 167 163 158 143 155 152 116 97 131 180 160 193 165 140 202 157 166 177 190 195 157 193 166 159 231 231 249 129 228 244 250 256 262 260 254 245 218 199 188 172 170 170 174 173 168 165 161 155
179 174 172 169 164 163 161 159 142 144 118 170 143 134 187 170 192 190 155 142 150 162 163 170 169 171 164 175 177 194 237 231 146 217 236 238 234 332 323 288 194 176 169 162 155 142 143 144 149 152 141 141 142 145
168 167 166 162 161 159 154 146 152 151 170 156 150 145 229 168 207 165 181 148 128 139 163 172 158 171 145 170 204 212 220 224 242 243 245 260 11 318 270 168 146 131 111 120 116 116 122 130 126 126 144 149 143 145
148 156 155 156 154 152 151 154 168 176 202 152 188 199 199 192 170 177 186 160 153 155 155 140 159 195 177 188 211 210 200 231 228 237 292 0 334 294 184 158 141 136 124 117 123 128 129 128 134 127 133 138 129 133
129 138 148 154 153 155 158 162 171 205 269 169 263 241 201 185 152 175 193 182 155 169 153 110 223 205 195 202 189 211 214 218 216 232 342 328 308 202 139 119 106 109 111 117 118 125 127 130 134 126 121 120 132 145
119 99 148 148 149 145 146 147 179 244 278 241 238 236 226 325 208 131 164 173 170 171 148 165 206 215 138 206 219 208 222 257 76 270 307 302 223 168 126 122 122 121 121 122 120 120 117 116 121 127 131 132 137 135
113 132 139 140 137 140 156 181 194 213 235 263 257 192 181 120 174 169 171 167 170 201 187 197 138 197 222 220 224 152 208 80 25 26 9 190 151 137 142 134 130 129 124 122 123 124 126 135 140 141 134 141 133 138
125 130 134 137 143 140 152 190 209 260 224 218 212 196 193 167 218 206 164 167 175 163 140 138 228 217 211 214 264 247 226 205 184 132 102 115 134 136 129 121 121 123 127 134 142 141 144 155 141 144 144 156 152 154
130 134 138 149 184 147 149 161 203 279 245 138 183 161 141 122 110 122 135 123 108 122 170 193 205 187 228 251 271 285 235 172 156 150 134 119 123 132 131 139 138 137 132 130 130 141 142 135 136 144 157 163 156 158
142 125 42 93 55 52 10 236 205 251 186 175 94 161 103 112 92 100 92 96 129 125 147 162 142 127 151 103 12 143 130 157 167 173 156 148 150 143 141 134 143 147 150 156 158 152 166 156 149 150 150 152 144 148
94 87 86 46 20 315 285 224 296 348 235 84 123 129 106 102 96 65 91 77 79 97 124 142 150 150 132 95 73 72 101 111 111 118 112 131 153 156 158 159 163 163 164 162 159 158 150 142 144 147 147 134 143 137
108 92 117 122 336 245 259 269 262 310 123 88 126 92 73 91 77 188 87 66 94 107 128 124 122 122 116 113 107 92 92 119 123 130 142 135 132 132 140 149 154 157 152 145 148 151 141 134 142 140 136 145 139 133
46 78 170 182 231 209 222 203 228 115 81 78 77 113 109 98 155 90 122 140 129 154 155 142 141 125 119 123 114 95 76 101 116 117 131 143 136 128 127 123 124 128 142 141 143 134 141 136 138 145 147 148 147 150
128 48 252 125 177 184 151 144 127 115 109 113 138 138 123 201 139 180 192 152 162 169 159 156 157 160 156 134 130 123 124 162 158 137 118 130 123 124 117 110 112 121 143 144 147 145 142 146 148 151 155 155 154 152
77 17 22 2 354 338 78 140 140 138 142 117 101 93 182 171 190 198 171 158 163 162 165 174 171 159 158 175 168 168 141 149 153 139 113 155 169 171 162 163 163 155 175 160 156 156 155 157 157 156 155 153 154 149
71 27 23 29 311 339 103 67 75 97 92 103 140 169 194 207 201 131 125 78 116 94 81 112 209 194 173 150 114 91 77 74 68 88 96 81 61 25 211 186 186 148 157 158 164 166 162 162 161 165 156 149 157 155
51 18 27 4 43 21 78 48 30 42 57 61 203 201 221 303 111 101 82 83 72 85 85 63 23 115 126 123 121 127 103 104 105 107 105 86 63 56 62 69 81 134 136 148 151 155 161 162 161 157 154 148 140 140
44 0 340 26 18 52 36 31 44 44 352 300 277 228 195 57 60 128 96 63 122 164 148 141 105 107 103 108 114 129 151 162 161 166 175 162 164 132 96 104 113 114 117 111 103 125 138 137 141 138 134 132 127 127
34 348 72 81 52 54 45 344 37 17 19 23 61 141 166 153 95 332 271 209 202 195 154 143 142 160 152 163 154 159 186 195 241 231 205 200 188 137 145 135 128 123 123 117 113 107 105 106 109 112 119 125 127 130
328 290 98 44 78 67 43 6 341 352 357 340 38 304 277 58 203 198 238 245 231 204 184 172 171 166 168 185 193 183 189 188 200 221 338 119 140 148 141 134 129 129 130 135 137 136 134 129 128 131 135 134 137 140
3 39 120 137 149 97 20 326 285 269 276 238 204 185 192 234 251 176 156 221 209 212 203 206 198 187 187 162 154 135 14 133 149 142 145 147 143 137 134 130 133 135 133 131 130 134 135 133 136 135 135 137 138 137
225 204 147 171 178 200 81 303 240 286 225 236 204 253 252 272 263 116 141 251 276 278 161 111 71 80 126 161 138 112 106 99 102 111 127 131 137 138 133 133 130 130 130 126 127 131 133 133 132 135 135 136 135 133